Virtual Norwegian is not affiliated with Norwegian Air Shuttle in any way.
If you are looking for the real "Norwegian", or you wish to book Norwegian flights, please visit Norwegian.com


We use cookies to ensure you get the best experience on our website.   ACCEPT

ENBO - BOO - Bodo (Bodo)

General Info Alternate Airport
ICAO: ENBO Elevation: 42 ft ICAO: ENEV
IATA: BOO Country: Norway IATA: EVE
City: Bodo Charts: Log in to view charts City: Harstad/Narvik
Name: Bodo Hub: No Name Evenes
General Info
ICAO: ENBO
IATA: BOO
City: Bodo
Name: Bodo
Elevation: 42 ft
Country: Norway
Charts: Log in to view charts
Hub: No
 
Alternate Airport
ICAO: ENEV
IATA: EVE
City: Harstad/Narvik
Name: Evenes

Weather
232350Z VRB01KT 9999 FEW004 SCT008 BKN080 13/12 Q1016
Weather
232350Z VRB01KT 9999 FEW004 SCT008 BKN080 13/12 Q1016

Runway Info
07
Length ILS/LOC Course
2794 m 110.30 074
25
Length ILS/LOC Course
2794 m 108.70 264

NOTAMs
NOTAMs currently unavailable.
NOTAMs
NOTAMs currently unavailable

Route map
Airport
Airport (hub)